Location: Cormont
(50.5693°N, 1.7416°E)
Time: 10:20:49
(UTC+00:00)

CENTAUR R/B - Pass Details

Date: 21 October 2019
Orbit: 781 x 1407 km, 63.4° (Epoch: 07 November)

Event Time Altitude Azimuth Distance (km) Brightness Sun altitude
Rises 20:23:07 0° 232° (SW) 3,505 5.7 -33.9°
Reaches altitude 10° 20:25:29 10° 235° (SW) 2,638 5.0 -34.2°
Enters shadow 20:29:56 50° 255° (WSW) 1,270 3.2 -34.8°
